Date,TemperatureHighF,TemperatureAvgF,TemperatureLowF,DewpointHighF,DewpointAvgF,DewpointLowF,HumidityHigh,HumidityAvg,HumidityLow,PressureMaxIn,PressureMinIn,WindSpeedMaxMPH,WindSpeedAvgMPH,GustSpeedMaxMPH,PrecipitationSumIn
2013-1-1,23.9,16.0,10.3,11.6,6.5,2.9,77,66,48,30.21,30.10,12,3,13,0.00
2013-1-2,29.3,20.3,10.1,15.9,10.2,3.1,75,65,48,30.21,30.08,16,3,16,0.00
2013-1-3,28.9,25.3,17.8,25.3,19.8,13.2,92,79,71,30.24,30.07,18,4,18,0.00
2013-1-4,35.7,24.5,13.7,23.4,17.6,9.0,92,75,59,30.23,30.09,20,4,20,0.00
2013-1-5,39.6,30.1,21.2,33.8,26.1,18.1,100,86,64,30.23,29.91,20,3,20,0.04
2013-1-6,34.9,28.9,21.2,32.8,24.0,17.0,93,82,73,30.31,29.87,24,4,24,0.00
2013-1-7,41.1,28.8,18.2,26.9,21.9,15.0,92,76,54,30.31,30.08,24,5,24,0.00
2013-1-8,43.2,34.5,27.2,30.3,27.3,23.6,87,75,59,30.14,29.98,20,4,20,0.00
2013-1-9,48.4,38.5,28.1,31.9,27.2,21.6,83,65,37,30.47,29.96,31,5,31,0.00
2013-1-10,43.4,34.0,23.4,36.2,27.5,19.6,91,78,57,30.49,29.88,18,4,18,0.54
2013-1-11,51.6,48.2,38.7,50.2,46.3,36.3,99,93,88,29.88,29.60,20,5,23,0.26
2013-1-12,51.3,42.7,29.8,47.7,36.1,25.3,88,78,65,29.94,29.65,24,4,24,0.00
2013-1-13,29.8,23.3,14.0,26.5,19.3,7.9,90,84,76,30.22,29.84,21,4,21,0.04
2013-1-14,25.2,17.5,11.2,14.1,10.1,6.5,81,73,54,30.44,30.22,11,2,0,0.01
2013-1-15,31.2,21.6,12.6,17.4,13.6,7.8,85,72,48,30.44,30.11,8,1,0,0.00
2013-1-16,36.7,27.0,16.4,27.9,20.3,13.7,89,77,55,30.11,29.79,26,3,26,0.01
2013-1-17,32.4,25.4,18.0,28.7,13.2,4.1,86,61,39,30.40,30.03,18,3,18,0.00
2013-1-18,43.1,31.5,15.6,30.5,22.7,10.9,84,70,56,30.42,29.88,32,5,32,0.00
2013-1-19,46.1,40.3,25.1,36.1,30.4,8.9,76,68,45,29.90,29.67,36,6,36,0.00
2013-1-20,25.0,16.2,11.6,10.2,3.6,0.9,65,57,48,30.27,29.87,30,6,30,0.00
2013-1-21,13.2,8.5,2.4,3.7,-1.7,-7.0,73,62,50,30.28,30.12,23,7,23,0.00
2013-1-22,10.9,5.1,-2.8,-2.0,-5.0,-9.1,72,61,50,30.39,30.27,16,4,16,0.00
2013-1-23,19.5,14.2,7.3,15.1,6.0,-2.7,83,69,59,30.36,30.10,22,3,22,0.00
2013-1-24,20.5,13.9,4.4,11.1,3.4,-3.3,71,62,51,30.62,30.34,18,4,18,0.00
2013-1-25,25.7,22.0,18.1,19.7,14.4,6.0,84,72,54,30.38,29.95,19,4,19,0.00
2013-1-26,27.5,20.4,10.9,18.2,10.9,5.5,80,67,46,30.39,30.17,13,2,13,0.05
2013-1-27,35.1,29.0,24.0,33.2,23.5,17.4,93,80,69,30.37,29.88,23,5,23,0.05
2013-1-28,46.7,41.6,35.1,45.3,39.1,33.3,95,91,80,29.93,29.77,19,4,19,0.25
2013-1-29,61.7,54.1,38.0,58.7,52.2,36.2,96,93,89,29.81,29.34,26,4,26,1.15
2013-1-30,42.9,32.5,19.7,40.7,30.6,15.6,100,93,83,29.58,29.16,26,5,26,0.31
2013-1-31,19.7,13.7,4.9,15.7,7.5,-0.4,87,76,67,30.14,29.58,25,8,25,0.00
2013-2-1,13.3,7.6,0.1,9.9,1.0,-4.8,86,74,64,30.34,30.14,20,4,20,0.00
2013-2-2,22.6,15.3,7.5,20.3,11.2,1.3,91,83,74,30.19,30.02,13,3,13,0.00
2013-2-3,22.3,16.2,7.9,14.6,9.9,1.9,86,76,66,30.06,29.95,20,3,20,0.00
2013-2-4,28.5,22.3,13.7,25.8,18.8,9.4,92,86,80,30.04,29.86,15,2,15,0.00
2013-2-5,31.1,22.6,9.1,27.2,18.6,4.7,88,84,76,30.08,29.79,16,3,16,0.00
2013-2-6,36.9,28.4,11.5,29.5,21.7,7.4,89,76,62,30.23,30.08,12,2,12,0.21
2013-2-7,34.2,32.8,32.1,31.8,30.0,27.7,93,90,81,30.10,29.84,11,2,0,0.39
2013-2-8,32.1,26.0,23.0,30.3,23.6,20.3,93,90,86,30.38,29.92,10,1,0,0.01
2013-2-9,34.4,26.6,20.1,27.7,22.5,17.4,92,85,73,30.39,30.07,14,2,14,0.15
2013-2-10,45.8,37.8,26.5,44.2,35.3,23.7,94,91,82,30.08,29.46,27,6,27,0.55
2013-2-11,42.2,33.0,27.8,36.8,26.2,20.9,81,76,73,30.00,29.46,33,8,33,0.00
2013-2-12,28.1,25.7,22.8,22.1,20.1,18.2,92,79,76,30.09,29.90,22,4,22,0.00
2013-2-13,44.4,32.5,22.0,31.9,26.9,18.9,95,80,58,29.90,29.69,14,2,14,0.00
2013-2-14,38.0,35.7,31.4,32.8,28.6,21.3,86,76,62,29.94,29.60,26,5,26,0.00
2013-2-15,31.6,26.5,19.0,23.6,15.2,9.7,82,63,46,30.16,29.94,16,4,16,0.00
2013-2-16,19.4,15.3,10.9,10.5,5.4,2.4,77,64,54,30.20,30.12,17,3,17,0.00
2013-2-17,29.1,20.0,7.6,14.0,5.0,0.5,75,54,33,30.22,30.00,13,2,13,0.00
2013-2-18,51.5,39.8,27.4,44.3,31.2,14.0,92,72,57,30.01,29.36,28,8,28,0.21
2013-2-19,31.2,16.3,10.8,28.6,10.2,1.7,90,76,66,30.17,29.49,32,8,32,0.00
2013-2-20,23.7,15.5,7.8,12.3,7.1,0.9,82,69,58,30.37,30.17,18,4,18,0.00
2013-2-21,28.7,24.6,16.8,25.3,19.8,11.2,88,81,75,30.38,30.01,27,5,27,0.00
2013-2-22,33.4,28.2,24.3,31.1,25.7,22.0,92,90,85,30.01,29.78,28,5,28,0.00
2013-2-23,31.7,26.3,22.6,24.5,20.6,17.6,88,79,64,29.94,29.86,16,3,16,0.04
2013-2-24,39.4,27.4,16.6,26.3,20.1,12.5,90,75,57,30.13,29.94,12,2,12,0.22
2013-2-25,42.6,30.7,18.6,30.2,24.6,16.3,92,79,48,30.17,29.96,15,2,15,0.00
2013-2-26,35.4,32.9,31.7,30.8,29.5,27.9,95,87,76,29.97,29.50,31,7,31,0.00
2013-2-27,34.4,32.6,32.0,32.9,31.3,30.7,95,95,94,29.55,29.49,16,3,16,0.00
2013-3-3,33.7,25.7,15.5,18.3,15.4,12.2,87,66,45,30.13,30.07,11,2,0,0.24
2013-3-4,32.4,25.6,14.1,26.4,20.3,11.5,91,80,68,30.12,30.00,19,4,19,0.03
2013-3-5,32.9,31.1,29.2,30.1,27.9,26.3,92,88,80,30.00,29.80,21,5,21,0.00
2013-3-6,36.2,30.8,26.9,30.3,27.0,24.6,93,86,76,30.28,29.96,15,4,15,0.06
2013-3-7,39.6,31.2,23.6,27.7,24.6,21.3,91,77,57,30.41,30.27,10,2,0,0.64
2013-3-8,42.2,33.1,22.7,29.6,26.6,20.7,92,78,55,30.47,30.29,14,3,14,0.06
2013-3-9,44.4,38.0,30.5,34.9,30.3,25.1,88,74,61,30.29,29.81,19,4,19,0.04
2013-3-10,48.0,43.7,40.4,46.6,41.1,34.6,95,90,68,29.82,29.59,19,4,19,0.70
2013-3-11,46.7,38.3,32.2,45.1,36.9,30.4,100,95,93,29.73,29.49,17,3,17,0.07
2013-3-12,36.4,31.3,26.0,30.5,26.8,23.1,93,84,65,29.98,29.73,24,6,24,0.02
2013-3-13,32.6,26.4,20.6,23.0,16.0,10.3,89,66,44,30.31,29.98,23,5,23,0.02
2013-3-14,37.7,29.8,20.8,28.9,21.6,15.4,89,72,42,30.31,30.06,13,2,13,0.00
2013-3-15,41.4,34.2,30.5,36.1,31.1,27.8,99,88,72,30.07,29.74,13,2,13,0.15
2013-3-16,34.2,31.0,29.4,32.7,28.0,22.4,94,89,75,30.10,29.72,17,4,17,0.01
2013-3-17,33.4,29.8,24.5,25.5,21.9,17.0,78,72,65,30.20,29.99,22,6,22,0.00
2013-3-18,34.4,30.3,22.0,32.1,26.3,14.4,91,85,72,29.99,29.58,32,6,32,0.08
2013-3-19,31.6,22.4,16.7,15.8,13.1,10.2,77,68,49,30.04,29.74,29,9,29,0.00
2013-3-20,24.7,19.8,13.7,13.2,7.7,4.0,68,59,49,30.07,30.00,21,7,21,0.00
2013-3-21,33.4,27.1,13.8,16.2,14.1,6.5,72,58,46,30.03,29.99,15,4,15,0.00
2013-3-22,39.9,27.7,17.9,22.6,17.1,12.2,84,66,39,30.07,29.99,12,2,12,0.00
2013-3-23,41.4,31.2,22.1,27.1,22.9,19.0,89,73,46,30.13,30.01,14,2,14,0.00
2013-3-24,39.1,33.7,31.3,29.5,27.4,24.4,84,78,66,30.02,29.65,28,8,28,0.00
2013-3-25,38.2,33.3,31.7,29.7,26.4,23.7,82,76,68,30.05,29.68,29,6,29,0.00
2013-3-26,43.4,34.6,27.2,27.9,25.5,22.7,86,70,49,30.22,30.05,15,2,15,0.00
2013-3-27,42.4,36.5,28.4,27.3,23.7,20.4,80,60,44,30.29,30.22,12,2,12,0.00
2013-3-28,48.6,31.2,24.9,26.1,20.9,18.0,79,67,36,30.32,30.29,10,1,0,0.00
2013-4-1,38.0,32.8,29.1,15.5,14.6,13.5,53,47,37,30.16,30.08,17,3,17,0.00
2013-4-2,44.9,33.7,24.4,21.6,15.8,10.9,78,50,27,30.29,30.16,20,4,20,0.00
2013-4-3,43.6,32.5,22.1,23.8,17.7,14.2,80,56,34,30.43,30.28,15,3,15,0.00
2013-4-5,47.9,39.5,35.0,30.2,26.7,22.9,73,60,49,30.20,30.13,15,5,15,0.00
2013-4-6,68.1,51.7,35.2,47.7,34.8,25.1,80,55,32,30.15,29.55,39,8,39,0.15
2013-4-7,59.4,47.1,37.2,48.5,38.4,31.3,86,72,48,29.95,29.55,25,5,25,0.02
2013-4-8,61.2,48.2,37.5,54.3,42.3,32.5,94,80,62,29.97,29.51,32,6,32,0.46
2013-4-9,49.7,40.5,38.1,46.6,38.0,35.8,95,91,82,29.99,29.82,22,5,22,0.04
2013-4-10,39.8,38.2,36.6,38.3,36.6,34.9,95,94,91,30.08,29.80,31,7,31,0.58
2013-4-11,42.4,39.7,36.4,41.3,38.5,34.8,100,95,94,29.88,29.53,26,5,26,0.40
2013-4-12,47.6,39.3,35.9,40.4,35.6,31.3,96,87,69,29.81,29.53,20,5,20,0.01
2013-4-13,45.1,38.8,34.6,31.2,28.9,25.6,82,68,52,29.97,29.80,24,5,24,0.00
2013-4-14,64.2,46.6,35.4,49.0,37.2,28.0,78,70,53,30.00,29.63,25,6,25,0.00
2013-4-15,68.6,57.0,43.1,54.9,49.0,39.9,89,75,54,29.94,29.62,31,6,31,0.45
2013-4-16,58.2,44.7,37.8,41.8,36.6,33.0,91,75,46,30.25,29.91,14,3,14,0.01
2013-4-17,44.7,41.9,39.6,43.1,37.9,33.3,95,86,74,30.27,29.76,24,5,24,1.32
2013-4-18,62.7,50.4,41.8,58.6,48.2,36.3,97,92,80,29.83,29.36,33,5,33,2.20
2013-4-19,42.4,37.8,33.0,36.3,30.1,25.9,81,74,63,29.87,29.43,28,7,28,0.01
2013-4-20,45.7,36.4,29.3,27.8,23.2,17.1,81,60,33,30.42,29.88,19,4,19,0.00
2013-4-21,52.6,42.7,29.4,29.9,25.6,18.3,75,53,34,30.51,30.30,21,5,21,0.00
2013-4-22,69.3,53.8,42.7,39.2,33.5,29.5,61,47,29,30.30,30.00,19,4,19,0.00
2013-4-23,59.5,48.5,37.3,50.3,42.4,34.8,92,80,55,30.00,29.84,13,2,13,0.63
2013-4-24,51.3,42.6,35.7,35.7,32.0,27.6,93,69,41,30.08,29.90,19,3,19,0.11
2013-4-25,52.6,45.0,38.6,36.9,32.5,27.6,89,63,45,30.29,30.01,21,4,21,0.05
2013-4-26,68.0,53.3,35.3,46.5,37.8,26.8,75,57,41,30.32,30.17,25,5,25,0.00
2013-4-27,69.5,57.0,45.1,49.1,43.4,39.9,88,62,42,30.25,29.96,19,3,19,0.00
2013-4-28,66.7,55.6,50.5,53.8,47.1,40.8,84,73,60,29.96,29.79,11,2,13,0.00
2013-4-29,75.6,62.8,49.2,55.6,51.2,45.3,92,69,43,29.86,29.71,23,4,23,0.00
2013-4-30,85.8,72.8,61.4,61.3,56.9,52.8,79,60,35,29.87,29.71,25,8,25,0.00
2013-5-1,87.8,74.4,59.7,60.1,55.3,46.3,75,54,28,30.08,29.87,20,4,20,0.00
2013-5-2,58.9,47.1,41.3,46.1,39.9,36.8,84,76,63,30.19,30.08,28,6,28,0.02
2013-5-3,45.5,42.1,39.2,43.5,39.4,35.8,93,90,84,30.13,29.93,22,6,22,0.08
2013-5-4,67.8,55.0,45.5,52.0,46.1,39.8,94,74,52,30.01,29.93,15,3,15,0.01
2013-5-5,66.6,55.4,44.7,48.4,42.9,38.4,86,64,47,30.00,29.94,17,3,17,0.00
2013-5-6,67.8,56.8,48.1,45.7,40.7,36.1,71,56,40,30.01,29.94,13,2,13,0.00
2013-5-7,74.8,58.4,43.7,47.8,41.4,35.4,85,56,32,30.02,29.94,13,2,13,0.00
2013-5-8,79.0,61.1,44.8,52.8,44.7,38.8,90,58,34,30.00,29.92,13,2,13,0.00
2013-5-9,71.3,57.4,44.6,60.1,47.8,41.3,90,72,53,29.92,29.81,17,2,17,0.25
2013-5-10,45.1,44.2,43.0,43.3,41.7,39.4,94,91,85,29.95,29.74,18,3,18,0.12
2013-5-11,59.2,49.5,42.9,50.7,38.6,25.9,93,69,36,29.99,29.78,26,4,26,0.01
2013-5-12,54.2,44.4,38.1,34.2,29.7,25.5,75,57,35,30.08,29.99,21,4,21,0.00
2013-5-13,58.9,47.0,33.2,42.7,35.2,30.9,92,66,43,30.16,29.96,16,3,16,0.00
2013-5-14,88.6,68.9,50.6,58.9,50.1,36.4,67,52,29,29.96,29.56,19,3,19,0.00
2013-5-15,85.2,72.3,57.1,59.3,52.3,48.4,80,51,31,29.78,29.54,16,3,16,0.00
2013-5-16,82.5,63.4,51.7,53.6,48.0,40.4,88,61,30,29.93,29.76,16,2,16,0.00
2013-5-17,63.2,56.1,50.4,51.6,46.1,40.8,80,69,56,30.02,29.91,16,2,16,0.00
2013-5-18,79.3,64.2,51.0,62.4,54.8,45.9,87,73,54,30.02,29.90,16,2,16,0.00
2013-5-19,85.2,70.1,55.8,67.0,60.7,53.3,93,74,54,29.91,29.70,18,2,18,0.00
2013-5-20,89.5,79.0,66.5,68.4,61.8,53.2,91,59,31,29.72,29.61,25,3,25,0.68
2013-5-21,82.5,71.8,62.1,66.7,62.5,59.4,94,74,53,29.68,29.58,20,3,20,0.14
2013-5-22,73.9,63.9,50.7,67.9,60.4,48.9,96,89,67,29.72,29.56,14,1,14,1.08
2013-5-23,51.9,47.2,41.1,50.5,42.7,35.2,95,85,70,30.27,29.71,29,5,29,0.05
2013-5-24,56.7,46.2,38.4,42.1,35.7,33.3,86,68,46,30.41,30.26,18,4,18,0.00
2013-5-25,56.6,47.8,38.0,44.1,39.8,34.6,89,74,60,30.37,30.27,12,1,12,0.00
2013-5-26,66.5,52.7,38.9,49.9,43.9,36.4,93,74,51,30.29,30.10,14,2,14,0.01
2013-5-27,55.7,53.4,50.0,52.8,50.2,43.4,93,89,78,30.12,29.83,15,4,15,0.01
2013-5-28,77.7,65.6,52.1,69.1,62.3,50.1,97,90,72,29.84,29.64,18,2,18,0.59
2013-5-29,83.7,71.9,63.8,68.0,64.6,61.4,93,79,58,29.89,29.71,14,2,14,0.02
2013-5-30,85.5,74.9,63.9,71.0,66.2,60.8,90,75,60,29.86,29.69,24,5,24,0.20
2013-5-31,78.5,70.8,63.2,67.7,64.5,60.9,95,82,64,29.80,29.64,20,4,20,0.20
2013-6-1,75.5,68.5,62.0,68.2,63.0,59.5,94,83,69,29.67,29.59,17,3,17,0.17
2013-6-2,61.9,52.2,42.7,60.2,49.2,38.2,94,89,81,30.01,29.63,18,2,18,0.03
2013-6-3,68.7,53.9,39.3,51.8,42.0,36.0,93,67,40,30.08,30.00,15,2,15,0.00
2013-6-4,71.3,56.8,45.6,50.9,46.5,42.5,93,70,45,30.13,30.06,13,2,13,0.00
2013-6-5,68.5,57.4,52.3,52.9,49.0,45.2,87,74,50,30.08,29.91,17,2,17,0.01
2013-6-6,58.1,54.2,51.6,53.9,50.5,45.8,94,87,78,29.92,29.85,14,3,14,0.18
2013-6-7,66.5,56.9,49.0,54.5,46.6,37.9,87,70,45,29.93,29.87,16,3,16,0.03
2013-6-8,74.2,58.4,44.9,50.9,46.8,42.1,93,69,36,29.98,29.87,13,2,13,0.00
2013-6-9,79.5,66.4,50.9,63.6,56.4,47.9,92,72,50,29.98,29.76,14,2,14,0.01
2013-6-10,77.7,64.9,59.1,68.1,61.5,57.4,96,89,70,29.81,29.69,13,1,13,0.25
2013-6-11,86.8,72.0,58.1,66.9,62.1,56.7,96,74,48,29.86,29.74,12,1,12,0.00
2013-6-12,80.2,67.3,59.9,68.5,62.1,58.2,95,84,66,29.86,29.48,18,2,18,0.47
2013-6-13,72.0,63.8,56.6,60.4,56.0,51.9,96,77,59,29.98,29.60,23,4,23,0.00
2013-6-14,74.8,64.2,53.8,59.1,53.5,49.7,86,69,51,30.08,29.98,12,2,13,0.00
2013-6-15,77.2,66.5,53.8,68.2,61.0,49.6,93,83,70,30.02,29.78,13,1,13,0.10
2013-6-16,87.5,76.3,66.5,68.9,63.0,55.9,86,66,39,29.85,29.79,21,2,21,0.00
2013-6-17,91.6,72.5,57.5,61.8,57.1,53.1,91,63,30,29.90,29.77,18,2,18,0.00
2013-6-18,68.4,59.1,53.1,57.3,52.4,47.3,94,79,62,30.04,29.88,18,4,20,0.00
2013-6-19,75.0,61.7,48.7,58.4,47.8,40.2,94,64,33,30.12,30.02,15,2,15,0.00
2013-6-20,86.5,69.8,52.7,65.3,57.2,47.2,93,67,43,30.11,30.01,16,2,16,0.00
2013-6-21,81.5,71.6,66.9,68.9,65.1,61.6,93,80,65,30.10,29.77,24,2,24,0.18
2013-6-22,79.3,72.3,67.2,72.2,67.5,65.3,95,85,72,30.08,29.88,16,2,16,0.05
2013-6-23,90.2,77.3,66.7,73.5,67.5,63.8,91,73,56,29.98,29.84,24,2,24,0.00
2013-6-24,87.0,74.0,66.2,70.0,67.0,64.1,93,80,52,29.98,29.76,16,2,17,0.18
2013-6-25,84.2,70.7,65.4,75.6,67.8,63.0,95,91,75,29.92,29.75,18,1,18,0.38
2013-6-26,77.5,69.7,65.4,70.2,66.1,61.8,95,89,77,29.79,29.65,14,1,14,3.07
2013-6-27,89.7,74.6,62.4,75.2,67.1,59.6,94,80,45,29.72,29.61,27,2,27,0.19
2013-6-28,83.6,72.5,64.8,66.6,62.9,58.9,91,73,47,29.64,29.52,22,3,22,0.00
2013-6-29,69.0,64.1,62.1,62.3,59.9,56.3,93,86,70,29.72,29.53,19,4,21,0.00
2013-6-30,74.6,66.3,59.9,62.2,54.6,42.6,89,68,40,29.93,29.72,26,5,26,0.00
2013-7-1,73.4,66.5,56.1,56.7,54.1,50.6,86,65,51,30.01,29.93,18,4,18,0.00
2013-7-2,63.6,61.1,59.9,57.1,55.6,54.4,90,82,75,30.02,30.01,13,3,13,0.00
2013-7-3,70.5,62.9,59.7,65.2,59.9,57.0,94,90,82,30.02,29.97,8,1,0,0.04
2013-7-4,81.3,70.1,55.2,66.6,61.4,53.8,97,76,52,30.06,29.96,16,1,16,0.00
2013-7-5,84.0,73.7,61.3,69.6,62.8,52.6,93,71,37,30.03,29.94,15,2,16,0.00
2013-7-6,84.0,74.3,63.3,70.6,66.0,61.2,94,77,60,30.01,29.91,15,1,15,0.00
2013-7-7,90.3,79.6,70.5,70.9,68.3,65.4,86,70,50,29.95,29.86,11,1,0,0.00
2013-7-8,84.8,77.7,70.4,76.0,71.7,68.0,94,82,69,29.94,29.84,15,2,15,0.27
2013-7-9,84.3,76.7,67.8,77.4,72.8,66.3,96,88,76,29.92,29.77,18,1,18,0.22
2013-7-10,84.5,76.2,62.9,75.0,67.9,56.6,92,77,54,29.94,29.76,15,2,15,0.00
2013-7-11,80.3,68.6,59.1,60.8,57.4,53.0,93,70,41,30.05,29.94,15,2,15,0.00
2013-7-12,82.8,68.0,52.8,63.1,58.0,50.5,94,73,42,30.11,30.03,12,1,13,0.00
2013-7-13,83.3,70.9,58.2,63.9,60.5,55.6,95,72,41,30.11,30.04,14,2,14,0.00
2013-7-14,87.0,76.4,66.8,71.1,67.7,61.9,91,76,55,30.16,30.09,14,2,14,0.00
2013-7-15,89.3,78.3,69.4,76.8,72.2,67.3,94,82,65,30.20,30.15,12,1,12,0.00
2013-7-16,94.0,82.9,73.6,76.7,73.4,71.2,93,75,53,30.23,30.16,12,1,12,0.00
2013-7-17,94.3,84.1,74.8,76.8,73.2,70.5,88,71,50,30.24,30.08,12,1,12,0.00
2013-7-18,96.0,85.6,76.0,76.7,73.6,70.2,88,69,46,30.11,29.87,17,1,17,0.00
2013-7-19,96.7,85.5,70.8,74.5,71.5,66.7,93,65,41,29.87,29.66,24,3,24,0.24
2013-7-20,86.9,74.9,65.9,70.1,66.9,60.7,95,78,44,29.89,29.71,15,2,15,0.04
2013-7-21,85.5,72.5,63.5,70.2,66.1,61.4,95,82,54,29.91,29.77,23,2,23,1.10
2013-7-22,87.3,76.2,66.9,73.4,68.6,63.8,97,79,53,29.82,29.66,19,1,19,0.01
2013-7-23,76.8,68.9,62.5,65.9,61.0,55.5,90,76,63,29.92,29.61,22,3,22,0.03
2013-7-24,72.2,64.2,56.9,55.8,53.2,50.1,89,68,49,30.02,29.92,15,3,15,0.00
2013-7-25,80.2,66.9,53.4,61.3,56.6,51.7,95,72,44,30.06,29.96,12,1,12,0.00
2013-7-26,69.8,65.7,61.3,65.7,61.3,58.2,95,86,68,29.98,29.82,13,1,13,0.63
2013-7-27,65.5,59.4,55.8,60.0,53.2,48.0,96,81,64,29.86,29.80,19,2,19,0.01
2013-7-28,69.3,60.4,54.0,55.0,51.0,48.4,83,72,52,29.97,29.81,16,2,16,0.00
2013-7-29,74.2,63.2,54.7,60.8,56.1,51.8,92,78,60,30.14,29.96,12,2,12,0.00
2013-7-30,74.9,64.9,54.3,65.5,59.9,52.9,96,85,57,30.14,30.02,12,0,12,0.04
2013-7-31,72.9,67.0,62.7,66.8,64.1,61.2,96,91,78,30.02,29.88,11,1,12,0.11
2013-8-1,80.0,68.6,59.0,66.3,58.5,53.8,97,73,44,29.93,29.88,14,1,14,0.01
2013-8-2,83.3,71.8,61.8,71.6,63.4,56.4,95,76,55,29.89,29.78,13,1,13,0.31
2013-8-3,78.3,68.4,59.0,62.2,57.6,52.1,91,71,45,30.06,29.88,13,2,13,0.00
2013-8-4,74.0,64.7,55.8,63.0,58.0,54.1,95,80,61,30.16,30.05,15,2,15,0.00
2013-8-5,75.5,66.0,56.5,64.0,58.7,53.7,93,78,59,30.08,29.83,16,1,16,0.04
2013-8-6,82.0,73.3,64.9,72.2,68.0,62.8,94,84,68,29.83,29.76,13,1,13,0.02
2013-8-7,87.5,75.2,64.0,74.6,69.6,61.6,93,83,63,29.89,29.72,19,2,19,0.00
2013-8-8,76.3,68.1,62.0,63.0,58.2,48.3,95,73,42,29.98,29.89,15,2,15,0.00
2013-8-9,84.2,71.4,56.9,66.0,61.3,54.8,94,72,51,29.97,29.90,12,1,12,0.00
2013-8-10,80.6,70.1,61.2,66.0,61.2,58.4,95,75,50,30.07,29.97,8,2,13,0.00
2013-8-11,79.9,68.9,57.4,66.5,60.7,55.7,95,77,51,30.08,29.97,9,0,0,0.00
2013-8-12,82.8,72.0,65.9,69.2,66.4,64.0,95,83,62,29.98,29.81,13,1,13,0.03
2013-8-13,71.0,63.2,55.8,63.9,54.1,48.1,94,73,48,30.10,29.88,20,3,20,0.00
2013-8-14,70.8,61.0,52.8,54.8,52.1,49.8,92,74,52,30.18,30.10,13,1,13,0.00
2013-8-15,78.8,64.6,54.9,58.9,54.5,50.0,92,71,45,30.12,30.04,11,1,0,0.00
2013-8-16,82.3,67.2,54.6,61.1,56.6,52.0,93,72,41,30.14,30.07,12,1,12,0.00
2013-8-17,81.0,67.7,55.3,65.2,57.9,53.8,96,74,44,30.19,30.11,13,2,13,0.00
2013-8-18,82.0,68.7,57.2,66.2,59.2,55.8,96,74,49,30.16,30.05,15,2,15,0.00
2013-8-19,87.2,72.3,58.1,65.0,61.1,56.1,94,71,45,30.07,29.96,13,1,13,0.00
2013-8-20,87.8,76.1,65.3,67.9,63.4,60.1,91,67,43,30.05,29.96,13,1,13,0.00
2013-8-21,91.5,79.6,67.7,69.4,66.4,63.5,87,66,44,30.02,29.88,16,1,16,0.00
2013-8-22,76.6,70.2,64.4,69.2,66.6,62.8,95,89,78,30.07,29.94,24,1,24,0.29
2013-8-23,81.5,68.2,58.9,65.8,58.5,50.8,97,75,39,30.13,30.05,14,2,14,0.00
2013-8-24,86.8,71.1,56.2,66.0,60.0,54.8,96,71,45,30.21,30.11,14,2,14,0.00
2013-8-25,91.0,78.1,65.8,71.4,63.6,54.6,71,62,49,30.18,30.05,14,1,14,0.00
2013-8-26,90.0,80.0,70.6,74.3,69.2,62.3,83,70,58,30.08,29.92,14,1,14,0.00
2013-8-27,97.3,84.7,75.1,75.0,72.1,69.3,85,67,45,29.92,29.74,20,2,20,0.00
2013-8-28,82.2,74.4,69.1,71.2,69.0,67.0,94,84,66,29.98,29.74,19,3,19,0.00
2013-8-29,87.5,74.7,65.0,73.7,68.1,63.8,96,82,55,30.02,29.92,12,2,12,0.00
2013-8-30,96.2,76.9,65.9,76.7,69.2,64.1,95,80,50,29.92,29.67,12,1,25,0.28
2013-8-31,78.3,71.2,68.4,70.7,67.0,65.3,94,87,76,29.80,29.73,14,2,14,0.04
2013-9-1,84.3,73.3,64.1,71.3,67.0,62.6,96,82,61,29.76,29.65,14,1,14,0.06
2013-9-2,77.2,66.5,57.4,67.3,61.3,53.1,95,84,70,29.93,29.74,15,2,15,0.01
2013-9-3,77.2,63.4,53.1,59.9,55.2,50.5,92,76,51,30.03,29.93,10,0,0,0.00
2013-9-4,83.3,68.9,56.1,61.4,58.3,53.6,92,72,42,30.07,29.98,14,1,14,0.00
2013-9-5,73.8,66.1,54.4,66.1,55.6,47.9,92,70,44,30.21,30.05,18,3,18,0.00
2013-9-6,84.7,69.5,53.1,66.4,58.6,50.2,93,71,44,30.18,29.95,10,1,0,0.00
2013-9-7,90.4,74.0,66.0,69.4,65.4,61.3,89,76,42,29.95,29.82,14,1,14,0.02
2013-9-8,73.3,70.6,67.8,68.2,66.5,65.1,92,87,78,29.98,29.88,15,4,15,0.00
2013-9-9,93.2,80.2,67.7,74.6,70.3,64.3,92,74,54,29.91,29.73,12,1,12,0.00
2013-9-10,96.9,85.6,75.3,71.7,66.6,64.2,72,55,36,29.91,29.78,20,2,20,0.00
2013-9-11,91.2,78.9,72.9,70.0,67.1,63.8,83,68,45,29.98,29.90,11,1,0,0.00
2013-9-12,84.0,69.4,59.2,67.1,61.0,53.2,94,76,36,30.02,29.87,21,2,21,0.04
2013-9-13,67.7,57.0,49.2,56.1,47.3,42.7,89,71,49,30.13,30.02,19,3,19,0.00
2013-9-14,72.3,58.8,45.2,51.4,45.2,41.3,93,65,36,30.15,29.98,13,1,13,0.00
2013-9-15,59.5,56.8,53.9,57.6,51.6,42.0,96,84,54,30.11,29.93,14,0,14,0.82
2013-9-16,63.9,55.8,48.2,57.6,49.7,45.1,95,81,60,30.33,30.11,21,3,21,0.01
2013-9-17,68.8,58.9,46.8,56.6,51.8,45.1,95,79,55,30.30,30.07,14,2,14,0.00
2013-9-18,81.0,68.3,60.0,67.2,59.6,51.2,89,74,57,30.07,29.85,17,2,17,0.00
2013-9-19,79.2,72.3,68.6,72.1,68.2,63.5,96,87,76,29.90,29.70,16,3,16,0.41
2013-9-20,76.0,68.3,58.4,67.2,61.3,52.3,92,79,66,29.76,29.68,22,2,22,0.01
2013-9-21,66.0,56.6,48.6,52.6,48.5,44.8,91,75,54,29.91,29.75,14,2,14,0.00
2013-9-22,65.0,53.8,45.5,52.3,47.2,42.7,93,79,59,30.02,29.90,13,2,13,0.00
2013-9-23,66.0,54.9,46.5,52.3,49.0,44.6,94,81,59,30.09,30.00,13,2,13,0.00
2013-9-24,70.2,57.4,45.9,55.0,50.4,44.3,95,79,51,30.03,29.89,15,2,15,0.00
2013-9-25,68.8,57.3,48.2,58.7,52.0,46.8,96,83,60,29.95,29.89,14,2,14,0.00
2013-9-26,74.6,58.8,47.0,60.4,52.0,45.6,97,81,44,30.05,29.92,12,1,12,0.00
2013-9-27,81.2,63.3,48.5,60.4,53.0,47.1,96,72,44,30.13,30.01,16,2,16,0.00
2013-9-28,82.9,69.3,53.9,64.3,56.3,50.5,91,66,43,30.04,29.83,24,3,24,0.01
2013-9-29,68.5,57.7,48.6,64.7,51.6,46.1,96,82,53,30.00,29.85,15,2,15,0.34
2013-9-30,73.2,58.6,44.0,55.3,49.4,42.7,96,75,40,29.97,29.82,11,1,0,0.00
2013-10-1,76.6,68.0,60.2,65.4,61.3,53.6,94,80,64,29.90,29.82,21,2,21,0.00
2013-10-2,74.8,64.2,55.0,63.2,55.0,49.1,95,75,42,30.05,29.90,12,1,12,0.00
2013-10-3,75.9,67.4,58.4,69.4,63.9,55.5,96,89,78,29.94,29.78,17,1,17,0.05
2013-10-4,72.9,68.0,64.2,67.9,63.8,61.6,92,87,77,29.93,29.83,14,2,14,0.01
2013-10-5,79.5,68.6,60.7,71.4,65.0,58.4,95,89,73,29.91,29.68,21,1,21,1.45
2013-10-6,65.3,54.8,44.7,63.2,47.8,40.2,93,78,51,29.74,29.63,17,1,17,0.17
2013-10-7,65.3,53.4,44.3,49.3,45.5,40.3,92,76,50,30.04,29.71,19,2,19,0.00
2013-10-8,75.7,58.5,43.1,54.2,48.5,41.7,96,73,40,30.15,30.04,12,1,12,0.00
2013-10-9,71.8,57.0,46.3,52.4,48.1,43.6,93,74,43,30.21,30.10,13,1,13,0.00
2013-10-10,75.0,57.1,44.1,55.7,50.2,42.8,96,80,44,30.14,30.01,12,1,12,0.00
2013-10-11,76.5,60.4,49.1,57.9,52.4,47.6,96,77,49,30.04,29.92,17,2,17,0.00
2013-10-12,71.3,61.0,48.3,62.9,55.3,44.3,93,82,67,30.13,29.91,15,1,15,0.07
2013-10-13,63.9,50.5,41.0,45.8,42.1,38.3,93,76,44,30.37,30.13,12,1,15,0.00
2013-10-14,62.4,50.5,40.2,49.8,44.2,38.6,95,81,55,30.37,30.10,18,2,18,0.00
2013-10-15,62.6,56.9,50.2,59.9,52.2,45.8,93,84,75,30.11,29.71,17,2,17,0.09
2013-10-16,54.0,50.0,45.9,48.6,45.5,41.8,87,85,81,29.89,29.78,14,1,14,0.01
2013-10-17,50.7,48.0,42.1,48.8,44.8,37.8,94,89,83,29.88,29.77,16,1,16,0.25
2013-10-18,49.6,44.2,37.7,43.8,39.5,34.8,93,84,73,29.93,29.80,13,2,18,0.00
2013-10-19,55.9,46.0,41.4,40.6,38.4,34.8,88,76,51,29.90,29.74,21,1,21,0.01
2013-10-20,58.8,48.4,36.6,47.9,41.4,32.9,95,77,62,29.85,29.68,11,1,0,0.02
2013-10-21,53.4,44.6,33.4,47.8,34.5,24.6,82,68,49,29.93,29.73,20,3,20,0.00
2013-10-22,43.9,35.7,29.2,33.8,27.7,23.6,83,73,54,29.96,29.89,11,1,0,0.00
2013-10-23,48.2,37.2,30.4,31.1,28.2,24.3,90,71,47,29.99,29.88,19,2,19,0.00
2013-10-24,45.9,37.8,32.0,30.0,27.2,23.3,83,66,45,30.27,29.98,18,3,18,0.00
2013-10-25,51.7,40.0,27.4,31.5,27.6,23.2,86,63,44,30.37,29.98,22,2,22,0.00
2013-10-26,54.9,45.6,35.8,38.5,31.1,27.6,76,57,47,30.04,29.80,24,3,24,0.00
2013-10-27,55.5,42.3,29.6,34.9,30.3,24.6,86,64,42,30.03,29.92,14,1,14,0.00
2013-10-28,51.4,43.6,33.9,42.8,37.6,30.2,92,80,68,30.34,30.03,19,4,19,0.00
2013-10-29,53.7,47.3,42.7,44.2,41.4,38.0,86,80,68,30.34,30.11,13,2,13,0.00
2013-10-30,59.5,53.1,42.3,56.8,48.6,37.7,93,85,79,30.11,29.69,13,1,13,0.23
2013-10-31,62.1,58.6,45.6,60.6,56.9,43.1,95,94,91,29.69,29.13,21,3,21,0.83
2013-11-1,48.2,44.5,41.9,43.0,40.6,38.2,91,86,81,29.54,29.31,24,4,24,0.00
2013-11-2,45.3,42.7,40.2,38.9,37.8,36.1,85,83,78,30.10,29.99,8,1,0,0.01
2013-11-3,52.9,42.0,30.9,42.4,36.5,28.0,93,81,66,30.27,30.10,14,2,14,0.00
2013-11-4,56.7,49.8,43.2,44.2,40.2,36.7,81,70,51,30.25,30.06,25,4,25,0.00
2013-11-5,55.1,52.6,50.6,49.7,47.0,43.8,89,81,74,30.23,29.91,27,3,27,0.02
2013-11-6,56.0,47.0,34.3,54.5,44.3,28.8,95,90,80,30.13,29.71,24,5,24,0.60
2013-11-7,46.0,35.9,28.8,33.2,29.5,24.5,88,78,54,30.20,30.13,16,2,16,0.00
2013-11-8,47.2,39.3,26.6,33.7,30.2,23.3,90,71,56,30.30,29.91,22,3,22,0.00
2013-11-9,58.5,49.1,40.5,42.2,37.2,25.5,76,64,52,30.06,29.80,30,7,30,0.00
2013-11-10,49.7,41.9,34.6,34.1,30.3,26.3,75,64,47,30.28,30.06,13,3,19,0.00
2013-11-11,45.9,36.2,23.6,37.4,29.8,18.4,92,78,63,30.48,30.04,19,3,19,0.12
2013-11-12,32.4,26.1,22.1,21.9,18.0,15.5,81,71,53,30.68,30.48,17,3,17,0.06
2013-11-13,40.6,30.2,19.4,22.7,18.2,14.0,82,62,37,30.57,30.13,25,4,25,0.00
2013-11-14,48.8,40.2,31.9,29.6,25.6,21.4,66,56,45,30.13,29.89,23,4,23,0.00
2013-11-15,51.5,43.0,37.6,36.7,32.0,27.7,80,65,48,29.95,29.89,15,3,15,0.00
2013-11-16,58.9,50.6,42.4,56.6,47.6,34.7,93,90,74,29.91,29.52,29,7,29,0.23
2013-11-17,67.6,55.0,41.3,62.8,51.4,35.6,94,87,78,29.65,29.09,34,8,38,0.71
2013-11-18,42.2,36.8,28.9,35.8,28.8,22.9,81,73,60,30.24,29.65,27,7,27,0.00
2013-11-19,40.4,32.1,22.8,31.2,26.3,18.3,90,79,65,30.36,30.23,11,1,0,0.00
2013-11-20,45.6,38.5,31.7,35.7,29.7,26.3,86,71,50,30.28,30.08,22,4,22,0.09
2013-11-21,49.9,44.3,39.5,44.2,40.0,35.7,92,85,77,30.17,30.08,9,1,0,0.02
2013-11-22,41.9,35.0,26.1,38.7,30.1,21.1,90,82,71,30.43,30.16,18,2,18,0.05
2013-11-23,26.1,21.3,14.5,21.0,10.4,3.1,81,63,49,30.69,30.40,22,4,22,0.00
2013-11-24,27.6,19.3,11.1,9.7,6.2,2.8,74,57,39,30.70,30.33,19,2,19,0.00
2013-11-25,30.7,27.3,22.1,26.9,19.1,9.6,86,72,55,30.33,30.05,21,4,21,0.00
2013-11-26,33.3,28.4,16.6,28.0,21.6,6.4,86,76,59,30.14,30.00,22,3,22,0.00
2013-11-27,29.1,20.4,11.9,15.7,10.2,5.1,76,64,51,30.25,30.12,19,3,19,0.00
2013-11-28,35.4,26.4,20.3,18.5,14.7,12.3,72,61,49,30.48,30.17,14,2,14,0.00
2013-11-29,37.3,27.2,14.5,22.9,18.0,8.7,86,69,51,30.63,30.39,14,2,14,0.00
2013-11-30,49.4,38.5,30.6,31.9,27.4,22.1,75,65,50,30.39,30.02,15,3,15,0.00
2013-12-1,43.0,34.2,28.8,34.6,28.1,22.6,87,79,68,30.09,29.96,11,1,0,0.00
2013-12-2,43.9,35.7,27.2,34.7,29.1,24.1,92,78,56,29.96,29.74,16,3,16,0.13
2013-12-3,48.6,41.6,36.3,47.0,39.6,33.0,94,92,88,29.74,29.64,14,2,14,0.05
2013-12-4,52.6,48.9,46.1,51.2,47.4,44.5,95,94,94,29.70,29.46,11,3,0,0.00
2013-12-5,29.2,24.8,20.2,20.1,15.2,11.4,72,66,63,30.25,29.96,21,5,21,0.00
2013-12-6,20.1,17.0,11.4,11.5,9.1,3.1,76,71,64,30.54,30.22,14,3,14,0.00
2013-12-7,20.1,12.5,6.8,6.4,3.2,0.4,75,66,52,30.70,30.54,14,2,14,0.00
2013-12-8,25.7,21.1,12.2,22.5,15.5,3.7,89,79,68,30.60,29.92,18,3,18,0.00
2013-12-9,24.8,16.4,0.6,22.0,11.2,-5.5,90,80,66,30.21,29.91,22,5,22,0.00
2013-12-10,23.3,11.3,-2.3,13.5,4.4,-7.4,85,73,61,30.29,30.00,28,5,28,0.00
2013-12-11,20.5,16.2,9.7,15.4,9.8,-0.6,86,76,57,30.49,30.26,15,3,15,0.00
2013-12-12,18.6,13.5,9.7,9.7,4.6,-0.6,75,67,62,30.49,30.23,7,2,0,0.00
2013-12-13,31.3,25.6,17.5,22.3,18.6,11.3,84,75,69,30.23,30.14,5,1,0,0.00
2013-12-14,31.3,31.3,31.3,22.3,22.3,22.3,69,69,69,30.14,30.14,1,1,0,0.00
2013-12-20,32.8,32.8,32.8,31.0,31.0,31.0,93,93,93,29.79,29.79,1,1,0,0.00
2013-12-27,40.7,38.9,36.4,32.5,30.9,29.2,79,73,67,30.17,30.04,15,4,0,0.23
2013-12-28,47.0,37.9,32.1,35.1,32.7,27.7,87,82,63,30.06,29.92,11,3,0,0.00
2013-12-29,36.5,30.5,24.5,30.3,25.6,20.9,86,82,78,29.92,29.73,0,0,0,0.00
2014-1-2,10.3,5.3,1.8,6.2,1.1,-2.4,83,82,81,30.40,30.35,9,2,0,0.00